Location: Newark
(0.5333°S, 166.9167°E)
Time: 06:13:13
(UTC+00:00)

OTV 5 (USA 277) - Visible Passes

Search period start: 23 March 2019 00:00
Search period end: 02 April 2019 00:00
Orbit: 315 x 320 km, 54.5° (Epoch: 14 March)

Date Brightness Start Highest point End Pass type
(mag) Time Alt. Az. Time Alt. Az. Time Alt. Az.
23 Mar ? 18:16:51 10° S 18:19:03 22° ESE 18:21:15 10° ENE visible
24 Mar ? 18:31:02 10° SW 18:33:42 55° WNW 18:36:20 10° NNE visible
25 Mar ? 17:14:18 11° ESE 17:14:18 11° ESE 17:15:04 10° ESE visible
26 Mar ? 17:30:04 26° NE 17:30:04 26° NE 17:31:29 10° NE visible
27 Mar ? 17:45:38 10° N 17:45:38 10° N 17:45:41 10° N visible
